Previsão horária em Alkeevo

Hoje, 25 Junho, Sexta-feira

Tempo Temperatura Precipitação Vento Pressão Humidade
00:00 +21°C° 0.5 mm 2 m/s 746 mmHg 86%
01:00 +20°C° 0.5 mm 2 m/s 746 mmHg 90%
02:00 +20°C° 0.5 mm 2 m/s 746 mmHg 91%
03:00 +20°C° 0.5 mm 2 m/s 746 mmHg 92%
04:00 +20°C° 0 mm 2 m/s 745 mmHg 93%
05:00 +21°C° 0 mm 3 m/s 745 mmHg 90%
06:00 +24°C° 0 mm 3 m/s 745 mmHg 87%
07:00 +25°C° 0 mm 3 m/s 745 mmHg 85%
08:00 +27°C° 0 mm 3 m/s 745 mmHg 77%
09:00 +28°C° 0 mm 4 m/s 745 mmHg 69%
10:00 +30°C° 0 mm 4 m/s 745 mmHg 63%
11:00 +32°C° 0 mm 4 m/s 745 mmHg 59%
12:00 +33°C° 0 mm 4 m/s 745 mmHg 56%
13:00 +34°C° 0 mm 3 m/s 745 mmHg 52%
14:00 +34°C° 0 mm 4 m/s 745 mmHg 51%
15:00 +34°C° 0 mm 4 m/s 744 mmHg 51%
16:00 +34°C° 0 mm 4 m/s 744 mmHg 50%
17:00 +33°C° 0 mm 4 m/s 744 mmHg 56%
18:00 +31°C° 0 mm 3 m/s 744 mmHg 61%
19:00 +30°C° 0 mm 3 m/s 743 mmHg 66%
20:00 +28°C° 0.1 mm 2 m/s 743 mmHg 71%
21:00 +27°C° 0.1 mm 2 m/s 743 mmHg 76%
22:00 +25°C° 0.1 mm 2 m/s 743 mmHg 80%
23:00 +24°C° 0.5 mm 2 m/s 744 mmHg 83%

Amanhã, 26 Junho, Sábado

Tempo Temperatura Precipitação Vento Pressão Humidade
00:00 +24°C° 0.5 mm 2 m/s 744 mmHg 86%
01:00 +23°C° 0.5 mm 2 m/s 744 mmHg 89%
02:00 +21°C° 0 mm 2 m/s 744 mmHg 88%
03:00 +20°C° 0 mm 2 m/s 743 mmHg 88%
04:00 +20°C° 0 mm 2 m/s 743 mmHg 87%
05:00 +21°C° 0 mm 2 m/s 743 mmHg 83%
06:00 +23°C° 0 mm 2 m/s 744 mmHg 79%
07:00 +24°C° 0 mm 2 m/s 744 mmHg 75%
08:00 +25°C° 0 mm 3 m/s 744 mmHg 70%
09:00 +27°C° 0 mm 3 m/s 744 mmHg 64%
10:00 +28°C° 0 mm 4 m/s 744 mmHg 58%
11:00 +29°C° 0 mm 4 m/s 744 mmHg 56%
12:00 +30°C° 0 mm 4 m/s 744 mmHg 54%
13:00 +32°C° 0 mm 4 m/s 744 mmHg 52%
14:00 +32°C° 0 mm 4 m/s 744 mmHg 52%
15:00 +32°C° 0 mm 4 m/s 743 mmHg 52%
16:00 +33°C° 0 mm 4 m/s 743 mmHg 52%
17:00 +32°C° 0.3 mm 4 m/s 743 mmHg 59%
18:00 +30°C° 0.3 mm 3 m/s 743 mmHg 65%
19:00 +28°C° 0.3 mm 3 m/s 742 mmHg 71%
20:00 +27°C° 0.7 mm 2 m/s 742 mmHg 75%
21:00 +25°C° 0.7 mm 2 m/s 743 mmHg 78%
22:00 +24°C° 0.7 mm 1 m/s 743 mmHg 82%
23:00 +23°C° 0.1 mm 1 m/s 743 mmHg 83%

Depois de amanhã, 27 Junho, Domingo

Tempo Temperatura Precipitação Vento Pressão Humidade
00:00 +23°C° 0.1 mm 1 m/s 743 mmHg 84%
01:00 +23°C° 0.1 mm 2 m/s 743 mmHg 86%
02:00 +21°C° 0.3 mm 2 m/s 743 mmHg 88%
03:00 +20°C° 0.3 mm 2 m/s 743 mmHg 90%
04:00 +20°C° 0.3 mm 2 m/s 743 mmHg 92%
05:00 +22°C° 0 mm 1 m/s 743 mmHg 88%
06:00 +23°C° 0 mm 1 m/s 743 mmHg 84%
07:00 +24°C° 0 mm 1 m/s 743 mmHg 80%
08:00 +25°C° 0.1 mm 1 m/s 743 mmHg 75%
09:00 +27°C° 0.1 mm 2 m/s 743 mmHg 70%
10:00 +28°C° 0.1 mm 2 m/s 743 mmHg 65%
11:00 +29°C° 0.2 mm 2 m/s 743 mmHg 61%
12:00 +30°C° 0.2 mm 2 m/s 744 mmHg 57%
13:00 +31°C° 0.2 mm 2 m/s 744 mmHg 53%
14:00 +31°C° 0 mm 2 m/s 744 mmHg 52%
15:00 +31°C° 0 mm 2 m/s 744 mmHg 51%
16:00 +32°C° 0 mm 1 m/s 744 mmHg 49%
17:00 +30°C° 0.5 mm 2 m/s 743 mmHg 56%
18:00 +29°C° 0.5 mm 2 m/s 743 mmHg 63%
19:00 +28°C° 0.5 mm 2 m/s 743 mmHg 70%
20:00 +26°C° 1.3 mm 1 m/s 743 mmHg 76%
21:00 +25°C° 1.3 mm 1 m/s 743 mmHg 81%
22:00 +23°C° 1.3 mm 1 m/s 743 mmHg 86%
23:00 +23°C° 0.1 mm 1 m/s 743 mmHg 85%

28 Junho, Segunda-feira

Tempo Temperatura Precipitação Vento Pressão Humidade
00:00 +22°C° 0.1 mm 1 m/s 743 mmHg 85%
01:00 +22°C° 0.1 mm 1 m/s 744 mmHg 84%
02:00 +22°C° 0 mm 1 m/s 744 mmHg 84%
03:00 +22°C° 0 mm 1 m/s 744 mmHg 83%
04:00 +21°C° 0 mm 1 m/s 744 mmHg 83%
05:00 +23°C° 0 mm 1 m/s 744 mmHg 80%
06:00 +24°C° 0 mm 1 m/s 744 mmHg 77%
07:00 +23°C° 0 mm 0 m/s 744 mmHg 74%
08:00 +26°C° 0 mm 1 m/s 744 mmHg 69%
09:00 +28°C° 0 mm 1 m/s 744 mmHg 65%
10:00 +29°C° 0 mm 1 m/s 744 mmHg 60%
11:00 +30°C° 0 mm 1 m/s 744 mmHg 57%
12:00 +31°C° 0 mm 1 m/s 744 mmHg 54%
13:00 +32°C° 0 mm 1 m/s 744 mmHg 50%
14:00 +32°C° 0 mm 2 m/s 744 mmHg 50%
15:00 +32°C° 0 mm 2 m/s 744 mmHg 49%
16:00 +32°C° 0 mm 2 m/s 744 mmHg 48%
17:00 +32°C° 0 mm 2 m/s 743 mmHg 54%
18:00 +31°C° 0 mm 2 m/s 743 mmHg 59%
19:00 +30°C° 0 mm 1 m/s 743 mmHg 65%
20:00 +29°C° 0 mm 1 m/s 743 mmHg 68%
21:00 +27°C° 0 mm 1 m/s 743 mmHg 71%
22:00 +24°C° 0 mm 0 m/s 743 mmHg 74%
23:00 +25°C° 0 mm 1 m/s 743 mmHg 75%

29 Junho, Terça-feira

Tempo Temperatura Precipitação Vento Pressão Humidade
00:00 +25°C° 0 mm 1 m/s 742 mmHg 76%
01:00 +24°C° 0 mm 1 m/s 742 mmHg 78%
02:00 +24°C° 0 mm 1 m/s 742 mmHg 79%
03:00 +24°C° 0 mm 1 m/s 742 mmHg 80%
04:00 +23°C° 0 mm 1 m/s 742 mmHg 81%
05:00 +25°C° 0 mm 1 m/s 742 mmHg 77%
06:00 +26°C° 0 mm 2 m/s 742 mmHg 74%
07:00 +27°C° 0 mm 2 m/s 742 mmHg 70%
08:00 +29°C° 0 mm 1 m/s 742 mmHg 64%
09:00 +30°C° 0 mm 1 m/s 742 mmHg 59%
10:00 +31°C° 0 mm 1 m/s 742 mmHg 53%
11:00 +32°C° 0 mm 1 m/s 742 mmHg 50%
12:00 +33°C° 0 mm 1 m/s 742 mmHg 47%
13:00 +35°C° 0 mm 2 m/s 742 mmHg 43%
14:00 +35°C° 0 mm 2 m/s 742 mmHg 44%
15:00 +35°C° 0 mm 3 m/s 742 mmHg 45%
16:00 +35°C° 0 mm 3 m/s 742 mmHg 46%
17:00 +34°C° 0 mm 3 m/s 741 mmHg 51%
18:00 +32°C° 0 mm 2 m/s 741 mmHg 57%
19:00 +31°C° 0 mm 1 m/s 741 mmHg 63%
20:00 +29°C° 0.3 mm 1 m/s 741 mmHg 66%
21:00 +28°C° 0.3 mm 2 m/s 741 mmHg 70%
22:00 +26°C° 0.3 mm 2 m/s 741 mmHg 74%
23:00 +26°C° 0.1 mm 2 m/s 741 mmHg 76%

30 Junho, Quarta-feira

Tempo Temperatura Precipitação Vento Pressão Humidade
00:00 +25°C° 0.1 mm 2 m/s 741 mmHg 79%
01:00 +25°C° 0.1 mm 2 m/s 741 mmHg 82%
02:00 +24°C° 0 mm 2 m/s 741 mmHg 82%
03:00 +24°C° 0 mm 2 m/s 741 mmHg 83%
04:00 +23°C° 0 mm 2 m/s 741 mmHg 84%
05:00 +25°C° 0 mm 2 m/s 742 mmHg 81%
06:00 +26°C° 0 mm 2 m/s 742 mmHg 79%
07:00 +27°C° 0 mm 3 m/s 742 mmHg 76%
08:00 +28°C° 0 mm 2 m/s 742 mmHg 70%
09:00 +29°C° 0 mm 1 m/s 742 mmHg 65%
10:00 +29°C° 0 mm 0 m/s 742 mmHg 59%
11:00 +31°C° 0.3 mm 1 m/s 742 mmHg 58%
12:00 +31°C° 0.3 mm 2 m/s 742 mmHg 56%
13:00 +33°C° 0.3 mm 3 m/s 742 mmHg 55%
14:00 +33°C° 0.1 mm 4 m/s 742 mmHg 54%
15:00 +33°C° 0.1 mm 4 m/s 742 mmHg 52%
16:00 +33°C° 0.1 mm 4 m/s 742 mmHg 51%
17:00 +32°C° 0 mm 4 m/s 742 mmHg 56%
18:00 +30°C° 0 mm 4 m/s 742 mmHg 62%
19:00 +29°C° 0 mm 4 m/s 742 mmHg 67%
20:00 +28°C° 0 mm 3 m/s 742 mmHg 74%
21:00 +26°C° 0 mm 3 m/s 742 mmHg 80%
22:00 +24°C° 0 mm 2 m/s 742 mmHg 86%
23:00 +23°C° 0 mm 2 m/s 742 mmHg 84%
Mostrar mais